Flag for China

Past Weather in 36°04'01"N, 120°22'55"E, China — Yesterday and Last 2 Weeks

Now
86 °F

Sunny.


Feels Like: 88 °F
Forecast: 77 / 72 °F
Wind: 8 mph from Southwest

Location: Qingdao Airport

Current Time: Jul 10, 2020 at 3:38:22 pm

Latest Report: Jul 10, 2020 at 2:00 pm


Visibility: 10 mi

Pressure: 29.59 "Hg

Humidity: 52%

Dew Point: 66 °F

Location of 36°04'01"N, 120°22'55"ELocation

Past Weather in 36°04'01"N, 120°22'55"E — Graph

°F

36°04'01"N, 120°22'55"E Temperature Yesterday

Maximum temperature yesterday: 81 °F (at 3:00 pm)
Minimum temperature yesterday: 66 °F (at 5:00 am)
Average temperature yesterday: 74 °F

High & Low Weather Summary for the Past Weeks

 TemperatureHumidityPressure
High90 °F (Jul 7, 2:00 pm)100% (Jun 26, 6:00 am)29.83 "Hg (Jun 26, 6:00 am)
Low59 °F (Jun 30, 5:00 am)43% (Jul 2, 12:00 pm)29.45 "Hg (Jul 6, 3:00 am)
Average75 °F77%29.65 "Hg
* Reported Jun 25 2:00 pm — Jul 10 2:00 pm, 36°04'01"N, 120°22'55"E. Weather by CustomWeather, © 2020

Note: Actual official high and low records may vary slightly from our data, if they occured in-between our weather recording intervals... More about our weather records

36°04'01"N, 120°22'55"E Weather History for the Previous 24 Hours

Scroll right to see more
 ConditionsComfort  
Time TempWeatherWind HumidityBarometerVisibility
2:00 pm
Fri, Jul 10
86 °FSunny.8 mph52%29.59 "Hg10 mi
1:00 pm88 °FPassing clouds.6 mph43%29.62 "HgN/A
12:00 pm86 °FPassing clouds.6 mph49%29.62 "HgN/A
11:00 am82 °FPassing clouds.6 mph58%29.62 "HgN/A
10:00 am82 °FPassing clouds.3 mph58%29.62 "HgN/A
9:00 am79 °FPassing clouds.3 mph70%29.62 "HgN/A
8:00 am75 °FFog.6 mph78%29.65 "Hg3 mi
7:00 am73 °FFog.3 mph83%29.65 "Hg2 mi
6:00 am70 °FFog.3 mph94%29.62 "Hg2 mi
5:00 am70 °FFog.3 mph94%29.62 "Hg2 mi
4:00 am68 °FFog.1 mph94%29.59 "Hg3 mi
3:00 am68 °FPassing clouds.1 mph94%29.59 "Hg4 mi
2:00 am70 °FClear.No wind88%29.59 "Hg4 mi
1:00 am72 °FClear.1 mph83%29.59 "Hg4 mi
12:00 am72 °FClear.6 mph88%29.59 "Hg4 mi
11:00 pm
Thu, Jul 9
72 °FClear.3 mph83%29.62 "Hg5 mi
10:00 pm73 °FClear.3 mph78%29.62 "Hg5 mi
9:00 pm73 °FClear.8 mph83%29.62 "Hg4 mi
8:00 pm73 °FClear.3 mph83%29.59 "Hg4 mi
7:00 pm75 °FClear.6 mph78%29.59 "Hg4 mi
6:00 pm75 °FPassing clouds.8 mph78%29.59 "HgN/A
5:00 pm77 °FScattered clouds.6 mph74%29.59 "HgN/A
4:00 pm79 °FPassing clouds.8 mph70%29.59 "HgN/A
3:00 pm81 °FScattered clouds.3 mph66%29.59 "HgN/A
Weather by CustomWeather, © 2020

See weather overview